Location: Fort Worth, Tx
(32.7431°N, 97.3695°W)
Time: 04:38:27
(UTC-05:00)

Altair - Pass Details

Date: 06 October 2023
Orbit: 1501 x 1682 km, 47.2° (Epoch: 06 December)

Event Time Altitude Azimuth Distance (km) Brightness Sun altitude
Rises 06:22:04 0° 294° (WNW) 4,810 - -26.9°
Reaches altitude 10° 06:25:34 10° 303° (WNW) 3,850 - -26.2°
Exits shadow 06:28:06 19° 313° (NW) 3,236 8.9 -25.7°
Maximum altitude 06:34:26 36° 7° (N) 2,433 8.6 -24.4°
Drops below altitude 10° 06:43:30 10° 70° (ENE) 3,939 10.7 -22.5°
Sets 06:47:07 0° 80° (E) 4,932 11.7 -21.8°
